Weather History for Grand Rapids, MN

Change the Weather History Date:

Thursday, November 20, 2014

  Actual Average Record
Temperature  
Mean Temperature 2 °F -  
Max Temperature 10 °F 33 °F 58 °F (1925)
Min Temperature -5 °F 18 °F -23 °F (1921)
Degree Days  
Heating Degree Days 62    
Moisture  
Dew Point -3 °F    
Average Humidity 72    
Maximum Humidity 92    
Minimum Humidity 56    
Precipitation  
Precipitation 0.00 in - - ()
Sea Level Pressure  
Sea Level Pressure 29.99 in    
Wind  
Wind Speed 13 mph (WNW)    
Max Wind Speed 20 mph    
Max Gust Speed 30 mph    
Visibility 10 miles    
Events      
Averages and records for this station are not official NWS values.
T = Trace of Precipitation, MM = Missing Value Source: NWS Daily Summary

Daily Weather History Graph

Daily Weather History Graph

Search for Another Location

Airport:

Trip Planner

Search our weather history database for the weather conditions in past years. The results will help you decide how hot, cold, wet, or windy it might be!

Date:

Astronomy

Nov. 20, 2014 Rise Set
Actual Time 7:25 AM CST 4:33 PM CST
Civil Twilight 6:51 AM CST 5:07 PM CST
Nautical Twilight 6:13 AM CST 5:44 PM CST
Astronomical Twilight 5:37 AM CST 6:21 PM CST
Moon 5:12 AM CST (11/20) 3:45 PM CST (11/20)
Length of Visible Light 10h 16m
Length of Day
9h 08m
Waning Crescent, 4% of the Moon is Illuminated
Nov 20
Waning Crescent
Nov 22
New
Nov 29
First Quarter
Dec 6
Full
Dec 14
Last Quarter

Hourly Weather History & Observations

Time (CST) Temp. Windchill Dew Point Humidity Pressure Visibility Wind Dir Wind Speed Gust Speed Precip Events Conditions
12:15 AM 8.6 °F -8.9 °F 1.4 °F 73% 29.83 in 10.0 mi NW 16.1 mph 20.7 mph N/A   Overcast
12:35 AM 8.6 °F -7.7 °F 1.4 °F 73% 29.84 in 10.0 mi WNW 13.8 mph - N/A   Overcast
12:55 AM 8.6 °F -8.3 °F 1.4 °F 73% 29.84 in 10.0 mi WNW 15.0 mph 19.6 mph N/A   Mostly Cloudy
1:15 AM 6.8 °F -10.0 °F -0.4 °F 72% 29.84 in 10.0 mi NW 13.8 mph - N/A   Scattered Clouds
1:35 AM 6.8 °F -8.6 °F 1.4 °F 79% 29.85 in 10.0 mi WNW 11.5 mph 18.4 mph N/A   Partly Cloudy
1:55 AM 6.8 °F -11.3 °F -0.4 °F 72% 29.85 in 10.0 mi WNW 16.1 mph 20.7 mph N/A   Clear
2:15 AM 6.8 °F -11.3 °F -0.4 °F 72% 29.86 in 10.0 mi WNW 16.1 mph 21.9 mph N/A   Clear
2:35 AM 6.8 °F -9.3 °F -0.4 °F 72% 29.87 in 10.0 mi WNW 12.7 mph 21.9 mph N/A   Clear
2:55 AM 6.8 °F -10.7 °F -0.4 °F 72% 29.87 in 10.0 mi WNW 15.0 mph 21.9 mph N/A   Clear
3:15 AM 6.8 °F -10.0 °F -0.4 °F 72% 29.87 in 10.0 mi WNW 13.8 mph 20.7 mph N/A   Clear
3:35 AM 5.0 °F -11.6 °F -0.4 °F 78% 29.87 in 10.0 mi WNW 12.7 mph 20.7 mph N/A   Clear
3:55 AM 5.0 °F -11.6 °F -0.4 °F 78% 29.88 in 10.0 mi WNW 12.7 mph - N/A   Partly Cloudy
4:15 AM 3.2 °F -13.9 °F -0.4 °F 85% 29.88 in 10.0 mi WNW 12.7 mph 20.7 mph N/A   Clear
4:35 AM 3.2 °F -16.5 °F -0.4 °F 85% 29.88 in 10.0 mi WNW 17.3 mph 24.2 mph N/A   Clear
4:55 AM 3.2 °F -15.9 °F -2.2 °F 78% 29.88 in 10.0 mi WNW 16.1 mph 20.7 mph N/A   Clear
5:15 AM 3.2 °F -16.5 °F -2.2 °F 78% 29.88 in 10.0 mi NW 17.3 mph 25.3 mph N/A   Clear
5:35 AM 3.2 °F -17.6 °F -2.2 °F 78% 29.89 in 10.0 mi WNW 19.6 mph 25.3 mph N/A   Clear
5:55 AM 3.2 °F -16.5 °F -2.2 °F 78% 29.89 in 10.0 mi WNW 17.3 mph 23.0 mph N/A   Clear
6:15 AM 3.2 °F -16.5 °F -2.2 °F 78% 29.90 in 10.0 mi NW 17.3 mph 25.3 mph N/A   Clear
6:35 AM 3.2 °F -16.5 °F -2.2 °F 78% 29.90 in 10.0 mi WNW 17.3 mph 24.2 mph N/A   Clear
6:55 AM 3.2 °F -15.9 °F -2.2 °F 78% 29.91 in 10.0 mi WNW 16.1 mph 24.2 mph N/A   Clear
7:15 AM 1.4 °F -19.4 °F -2.2 °F 85% 29.91 in 10.0 mi NW 18.4 mph 24.2 mph N/A   Clear
7:35 AM 1.4 °F -18.8 °F -2.2 °F 85% 29.92 in 10.0 mi NW 17.3 mph 24.2 mph N/A   Clear
7:55 AM 1.4 °F -19.4 °F -2.2 °F 85% 29.93 in 10.0 mi WNW 18.4 mph 26.5 mph N/A   Clear
8:15 AM 3.2 °F -16.5 °F -2.2 °F 78% 29.94 in 10.0 mi WNW 17.3 mph 23.0 mph N/A   Clear
8:35 AM 3.2 °F -16.5 °F -2.2 °F 78% 29.96 in 10.0 mi NW 17.3 mph 25.3 mph N/A   Partly Cloudy
8:55 AM 3.2 °F -16.5 °F -2.2 °F 78% 29.96 in 10.0 mi NW 17.3 mph 24.2 mph N/A   Scattered Clouds
9:15 AM 3.2 °F -15.3 °F -2.2 °F 78% 29.98 in 10.0 mi NW 15.0 mph 26.5 mph N/A   Scattered Clouds
9:35 AM 3.2 °F -17.6 °F -2.2 °F 78% 29.98 in 10.0 mi NW 19.6 mph 29.9 mph N/A   Mostly Cloudy
9:55 AM 3.2 °F -16.5 °F -2.2 °F 78% 29.99 in 10.0 mi NW 17.3 mph 23.0 mph N/A   Partly Cloudy
10:15 AM 3.2 °F -16.5 °F -2.2 °F 78% 30.00 in 10.0 mi NW 17.3 mph - N/A   Mostly Cloudy
10:35 AM 5.0 °F -13.0 °F -2.2 °F 72% 30.00 in 10.0 mi NW 15.0 mph - N/A   Mostly Cloudy
10:55 AM 6.8 °F -10.7 °F -2.2 °F 67% 30.00 in 10.0 mi NW 15.0 mph - N/A   Partly Cloudy
11:15 AM 6.8 °F -7.8 °F -2.2 °F 67% 30.01 in 10.0 mi WNW 10.4 mph - N/A   Clear
11:35 AM 6.8 °F -9.3 °F -2.2 °F 67% 30.01 in 10.0 mi WNW 12.7 mph - N/A   Clear
11:55 AM 8.6 °F -8.9 °F -2.2 °F 62% 30.01 in 10.0 mi NW 16.1 mph - N/A   Clear
12:15 PM 8.6 °F -7.0 °F -2.2 °F 62% 30.02 in 10.0 mi WNW 12.7 mph - N/A   Clear
12:35 PM 8.6 °F -8.3 °F -2.2 °F 62% 30.02 in 10.0 mi NW 15.0 mph 19.6 mph N/A   Clear
12:55 PM 8.6 °F -7.0 °F -0.4 °F 67% 30.02 in 10.0 mi WNW 12.7 mph - N/A   Clear
1:15 PM 10.4 °F -5.4 °F -0.4 °F 62% 30.03 in 10.0 mi WNW 13.8 mph - N/A   Clear
1:35 PM 10.4 °F -4.1 °F -0.4 °F 62% 30.03 in 10.0 mi NW 11.5 mph - N/A   Clear
1:55 PM 10.4 °F -4.8 °F -0.4 °F 62% 30.04 in 10.0 mi WNW 12.7 mph 16.1 mph N/A   Clear
2:15 PM 10.4 °F -4.1 °F -0.4 °F 62% 30.04 in 10.0 mi WNW 11.5 mph - N/A   Clear
2:35 PM 10.4 °F -5.4 °F -0.4 °F 62% 30.04 in 10.0 mi WNW 13.8 mph 18.4 mph N/A   Clear
2:55 PM 10.4 °F -4.1 °F -0.4 °F 62% 30.05 in 10.0 mi WNW 11.5 mph 18.4 mph N/A   Clear
3:15 PM 10.4 °F -6.0 °F -0.4 °F 62% 30.05 in 10.0 mi WNW 15.0 mph - N/A   Clear
3:35 PM 10.4 °F -1.5 °F -0.4 °F 62% 30.06 in 10.0 mi WNW 8.1 mph - N/A   Clear
3:55 PM 10.4 °F -3.3 °F -2.2 °F 57% 30.06 in 10.0 mi WNW 10.4 mph - N/A   Clear
4:15 PM 10.4 °F -3.3 °F -2.2 °F 57% 30.06 in 10.0 mi WNW 10.4 mph 16.1 mph N/A   Clear
4:35 PM 10.4 °F -0.4 °F -2.2 °F 57% 30.07 in 10.0 mi NW 6.9 mph - N/A   Clear
4:55 PM 8.6 °F -1.3 °F -2.2 °F 62% 30.08 in 10.0 mi WNW 5.8 mph - N/A   Clear
5:15 PM 8.6 °F -1.3 °F -2.2 °F 62% 30.08 in 10.0 mi West 5.8 mph - N/A   Clear
5:35 PM 8.6 °F -1.3 °F -2.2 °F 62% 30.09 in 10.0 mi WNW 5.8 mph - N/A   Clear
5:55 PM 8.6 °F -1.3 °F -2.2 °F 62% 30.09 in 10.0 mi WNW 5.8 mph - N/A   Clear
6:15 PM 8.6 °F -1.3 °F -2.2 °F 62% 30.09 in 10.0 mi NW 5.8 mph - N/A   Clear
6:35 PM 6.8 °F -0.1 °F -5.8 °F 56% 30.09 in 10.0 mi NW 3.5 mph - N/A   Clear
6:55 PM 6.8 °F -2.0 °F -0.4 °F 72% 30.10 in 10.0 mi WNW 4.6 mph - N/A   Clear
7:15 PM 6.8 °F -2.0 °F -2.2 °F 67% 30.10 in 10.0 mi WNW 4.6 mph - N/A   Clear
7:35 PM 6.8 °F -3.5 °F -2.2 °F 67% 30.10 in 10.0 mi WNW 5.8 mph - N/A   Clear
7:55 PM 1.4 °F - -9.4 °F 61% 30.10 in 10.0 mi Calm Calm - N/A   Clear
8:15 PM -0.4 °F - -4.0 °F 85% 30.10 in 10.0 mi Calm Calm - N/A   Clear
8:35 PM -0.4 °F -8.3 °F -7.6 °F 72% 30.11 in 10.0 mi West 3.5 mph - N/A   Clear
8:55 PM -2.2 °F - -5.8 °F 85% 30.10 in 10.0 mi Calm Calm - N/A   Clear
9:15 PM -2.2 °F - -5.8 °F 85% 30.10 in 10.0 mi Calm Calm - N/A   Clear
9:35 PM -2.2 °F - -7.6 °F 78% 30.09 in 10.0 mi Calm Calm - N/A   Clear
9:55 PM -2.2 °F -10.4 °F -7.6 °F 78% 30.11 in 10.0 mi South 3.5 mph - N/A   Clear
10:15 PM -5.8 °F -14.5 °F -9.4 °F 84% 30.10 in 10.0 mi SSE 3.5 mph - N/A   Clear
10:35 PM -4.0 °F -14.6 °F -7.6 °F 85% 30.10 in 6.0 mi South 4.6 mph - N/A   Clear
10:55 PM -5.8 °F -16.7 °F -9.4 °F 84% 30.10 in 4.0 mi SSE 4.6 mph - N/A   Clear
11:15 PM -4.0 °F -17.8 °F -7.6 °F 85% 30.11 in 8.0 mi South 6.9 mph - N/A   Clear
11:35 PM -2.2 °F -12.5 °F -4.0 °F 92% 30.12 in 10.0 mi SSE 4.6 mph - N/A   Clear
11:55 PM -5.8 °F -16.7 °F -11.2 °F 77% 30.11 in 7.0 mi SSE 4.6 mph - N/A   Clear